AUA297W LOWW-EBBR

Flight info

Callsign AUA297W
Flight time 1h 26m
Altitude 36000
Route MEDIX2B/16 MEDIX DCT RENKA DCT INBED DCT TEKTU DCT TESGA DCT UMUPU T880 BATTY
Aircraft A320/M-SDE3FGHIRWY/LB1

Departure

Time 2026-05-05 18:12
Airport Vienna International Airport (LOWW)

Arrival

Time 2026-05-05 19:38
Airport Brussels Airport (EBBR)
Time Latitude Longitude Altitude Speed Heading
2026-05-05 17:41 48.11862 16.56876 626 ft 0 kts 206°
2026-05-05 18:00 48.11867 16.56880 610 ft 4 kts 207°
2026-05-05 18:01 48.11890 16.56901 614 ft 4 kts 210°
2026-05-05 18:01 48.11908 16.56916 620 ft 4 kts 211°
2026-05-05 18:01 48.11930 16.56937 623 ft 4 kts 210°
2026-05-05 18:01 48.11951 16.56950 624 ft 4 kts 158°
2026-05-05 18:02 48.11955 16.56949 624 ft 0 kts 107°
2026-05-05 18:04 48.11955 16.56950 624 ft 1 kts 107°
2026-05-05 18:04 48.11953 16.56976 619 ft 3 kts 99°
2026-05-05 18:04 48.11927 16.57059 614 ft 13 kts 117°
2026-05-05 18:05 48.11879 16.57182 615 ft 15 kts 133°
2026-05-05 18:05 48.11821 16.57312 615 ft 15 kts 123°
2026-05-05 18:05 48.11736 16.57382 617 ft 13 kts 165°
2026-05-05 18:05 48.11652 16.57411 618 ft 12 kts 164°
2026-05-05 18:06 48.11573 16.57444 614 ft 12 kts 166°
2026-05-05 18:06 48.11547 16.57452 620 ft 11 kts 171°
2026-05-05 18:06 48.11386 16.57386 625 ft 17 kts 199°
2026-05-05 18:06 48.11264 16.57292 613 ft 20 kts 212°
2026-05-05 18:07 48.11252 16.57140 618 ft 15 kts 296°
2026-05-05 18:07 48.11311 16.56964 612 ft 26 kts 297°
2026-05-05 18:07 48.11388 16.56718 622 ft 26 kts 297°
2026-05-05 18:07 48.11467 16.56480 620 ft 25 kts 300°
2026-05-05 18:08 48.11540 16.56257 615 ft 23 kts 295°
2026-05-05 18:08 48.11604 16.56056 620 ft 20 kts 294°
2026-05-05 18:08 48.11666 16.55868 615 ft 21 kts 293°
2026-05-05 18:08 48.11729 16.55680 618 ft 20 kts 298°
2026-05-05 18:09 48.11799 16.55469 614 ft 23 kts 298°
2026-05-05 18:09 48.11863 16.55267 612 ft 20 kts 297°
2026-05-05 18:09 48.11924 16.55073 614 ft 25 kts 297°
2026-05-05 18:09 48.12008 16.54811 621 ft 28 kts 296°
2026-05-05 18:10 48.12096 16.54556 616 ft 27 kts 297°
2026-05-05 18:10 48.12177 16.54311 611 ft 25 kts 293°
2026-05-05 18:10 48.12222 16.54080 614 ft 22 kts 253°
2026-05-05 18:10 48.12106 16.53979 610 ft 19 kts 175°
2026-05-05 18:11 48.12024 16.54128 614 ft 23 kts 118°
2026-05-05 18:11 48.11849 16.54646 612 ft 89 kts 117°
2026-05-05 18:11 48.11491 16.55744 617 ft 144 kts 118°
2026-05-05 18:11 48.11009 16.57102 1078 ft 147 kts 121°
2026-05-05 18:12 48.10555 16.58466 1719 ft 147 kts 125°
2026-05-05 18:12 48.10098 16.59851 2347 ft 149 kts 129°
2026-05-05 18:12 48.09611 16.61315 2674 ft 168 kts 127°
2026-05-05 18:12 48.09051 16.62979 2886 ft 190 kts 127°
2026-05-05 18:13 48.08296 16.64680 3104 ft 202 kts 145°
2026-05-05 18:13 48.07555 16.65509 3432 ft 199 kts 161°
2026-05-05 18:13 48.06275 16.66112 4117 ft 195 kts 180°
2026-05-05 18:13 48.04928 16.65893 4721 ft 197 kts 201°
2026-05-05 18:14 48.03433 16.64368 5540 ft 202 kts 230°
2026-05-05 18:14 48.02771 16.62504 6221 ft 208 kts 252°
2026-05-05 18:14 48.02642 16.61032 6633 ft 216 kts 268°
2026-05-05 18:14 48.03208 16.58100 7374 ft 234 kts 288°
2026-05-05 18:15 48.03654 16.56535 7558 ft 250 kts 287°
2026-05-05 18:15 48.04314 16.54012 7910 ft 269 kts 284°
2026-05-05 18:15 48.04939 16.51319 8557 ft 277 kts 283°
2026-05-05 18:15 48.05557 16.48557 9286 ft 283 kts 282°
2026-05-05 18:16 48.06182 16.45753 10028 ft 287 kts 282°
2026-05-05 18:16 48.06819 16.42882 10518 ft 301 kts 284°
2026-05-05 18:16 48.07505 16.39797 10712 ft 324 kts 284°
2026-05-05 18:16 48.08226 16.36569 11120 ft 336 kts 285°
2026-05-05 18:17 48.08979 16.33231 11783 ft 341 kts 287°
2026-05-05 18:17 48.09748 16.29839 12415 ft 347 kts 287°
2026-05-05 18:17 48.10525 16.26406 13126 ft 349 kts 285°
2026-05-05 18:17 48.11304 16.22948 13773 ft 352 kts 286°
2026-05-05 18:18 48.12090 16.19451 14344 ft 357 kts 286°
2026-05-05 18:18 48.12896 16.15864 14932 ft 361 kts 286°
2026-05-05 18:18 48.13699 16.12292 15554 ft 363 kts 285°
2026-05-05 18:18 48.14504 16.08695 16159 ft 366 kts 286°
2026-05-05 18:19 48.15315 16.05066 16720 ft 369 kts 285°
2026-05-05 18:19 48.16134 16.01404 17315 ft 372 kts 285°
2026-05-05 18:19 48.16956 15.97717 17910 ft 375 kts 285°
2026-05-05 18:19 48.17781 15.93995 18441 ft 377 kts 285°
2026-05-05 18:20 48.18610 15.90247 18904 ft 381 kts 285°
2026-05-05 18:20 48.19446 15.86473 19448 ft 383 kts 285°
2026-05-05 18:20 48.20286 15.82675 19958 ft 386 kts 285°
2026-05-05 18:20 48.21129 15.78861 20473 ft 388 kts 285°
2026-05-05 18:21 48.21980 15.75002 20968 ft 392 kts 285°
2026-05-05 18:21 48.22836 15.71101 21461 ft 395 kts 285°
2026-05-05 18:21 48.23681 15.67251 21933 ft 398 kts 285°
2026-05-05 18:21 48.24551 15.63290 22422 ft 401 kts 285°
2026-05-05 18:22 48.25422 15.59300 22915 ft 404 kts 285°
2026-05-05 18:22 48.26308 15.55222 23334 ft 408 kts 285°
2026-05-05 18:22 48.27177 15.51216 23699 ft 411 kts 285°
2026-05-05 18:22 48.28060 15.47129 24078 ft 413 kts 285°
2026-05-05 18:23 48.28948 15.43020 24452 ft 415 kts 285°
2026-05-05 18:23 48.29805 15.38876 24819 ft 416 kts 284°
2026-05-05 18:23 48.30562 15.34667 25195 ft 418 kts 282°
2026-05-05 18:23 48.31244 15.30425 25558 ft 419 kts 281°
2026-05-05 18:24 48.31889 15.26143 25920 ft 421 kts 280°
2026-05-05 18:24 48.32525 15.21845 26271 ft 423 kts 280°
2026-05-05 18:24 48.33174 15.17523 26615 ft 425 kts 280°
2026-05-05 18:24 48.33843 15.13186 26937 ft 427 kts 281°
2026-05-05 18:25 48.34531 15.08828 27268 ft 430 kts 281°
2026-05-05 18:25 48.34995 15.05931 27484 ft 431 kts 281°
2026-05-05 18:25 48.35940 15.00060 27915 ft 433 kts 281°
2026-05-05 18:25 48.36646 14.95647 28230 ft 435 kts 281°
2026-05-05 18:26 48.37347 14.91212 28535 ft 437 kts 281°
2026-05-05 18:26 48.38044 14.86763 28827 ft 438 kts 281°
2026-05-05 18:26 48.38741 14.82290 29119 ft 440 kts 280°
2026-05-05 18:26 48.39438 14.77801 29421 ft 442 kts 280°
2026-05-05 18:27 48.40135 14.73299 29691 ft 443 kts 280°
2026-05-05 18:27 48.40834 14.68768 29925 ft 445 kts 280°
2026-05-05 18:27 48.41536 14.64229 30140 ft 446 kts 280°
2026-05-05 18:27 48.42239 14.59684 30361 ft 447 kts 280°
2026-05-05 18:28 48.43650 14.50556 30875 ft 446 kts 280°
2026-05-05 18:28 48.44347 14.46012 31162 ft 445 kts 280°
2026-05-05 18:28 48.45039 14.41479 31463 ft 444 kts 280°
2026-05-05 18:29 48.45725 14.36955 31761 ft 442 kts 280°
2026-05-05 18:29 48.46405 14.32444 32098 ft 440 kts 280°
2026-05-05 18:29 48.47081 14.27956 32418 ft 439 kts 280°
2026-05-05 18:29 48.47756 14.23480 32726 ft 437 kts 280°
2026-05-05 18:30 48.48429 14.19024 33031 ft 436 kts 280°
2026-05-05 18:30 48.49098 14.14576 33344 ft 434 kts 280°
2026-05-05 18:30 48.49763 14.10145 33656 ft 433 kts 280°
2026-05-05 18:30 48.50432 14.05654 33930 ft 432 kts 280°
2026-05-05 18:31 48.51070 14.01365 34173 ft 431 kts 280°
2026-05-05 18:31 48.51721 13.96963 34419 ft 430 kts 280°
2026-05-05 18:31 48.52369 13.92573 34670 ft 429 kts 279°
2026-05-05 18:31 48.53015 13.88184 34907 ft 428 kts 279°
2026-05-05 18:32 48.53658 13.83813 35125 ft 427 kts 279°
2026-05-05 18:32 48.54301 13.79442 35328 ft 427 kts 279°
2026-05-05 18:32 48.54944 13.75066 35526 ft 426 kts 279°
2026-05-05 18:32 48.55580 13.70705 35699 ft 426 kts 279°
2026-05-05 18:33 48.56840 13.61984 35769 ft 424 kts 279°
2026-05-05 18:33 48.58099 13.53282 35789 ft 425 kts 281°
2026-05-05 18:34 48.60316 13.44953 35780 ft 431 kts 292°
2026-05-05 18:34 48.62987 13.36838 35777 ft 431 kts 292°
2026-05-05 18:35 48.65643 13.28715 35791 ft 431 kts 292°
2026-05-05 18:35 48.68295 13.20573 35783 ft 431 kts 292°
2026-05-05 18:36 48.70940 13.12422 35814 ft 432 kts 291°
2026-05-05 18:36 48.73587 13.04249 35794 ft 432 kts 291°
2026-05-05 18:37 48.76232 12.96072 35794 ft 433 kts 291°
2026-05-05 18:37 48.78875 12.87878 35795 ft 433 kts 291°
2026-05-05 18:38 48.81507 12.79680 35805 ft 433 kts 291°
2026-05-05 18:38 48.84143 12.71430 35795 ft 434 kts 291°
2026-05-05 18:39 48.86774 12.63170 35804 ft 435 kts 291°
2026-05-05 18:39 48.89400 12.54905 35804 ft 435 kts 291°
2026-05-05 18:40 48.92026 12.46614 35819 ft 435 kts 291°
2026-05-05 18:40 48.94622 12.38373 35823 ft 435 kts 291°
2026-05-05 18:41 48.97237 12.30050 35839 ft 436 kts 291°
2026-05-05 18:41 48.99851 12.21714 35834 ft 437 kts 291°
2026-05-05 18:42 49.02463 12.13356 35832 ft 437 kts 291°
2026-05-05 18:42 49.05077 12.04978 35828 ft 438 kts 291°
2026-05-05 18:43 49.07686 11.96591 35860 ft 438 kts 290°
2026-05-05 18:43 49.10282 11.88180 35833 ft 439 kts 290°
2026-05-05 18:44 49.12876 11.79743 35823 ft 439 kts 290°
2026-05-05 18:44 49.15473 11.71289 35821 ft 440 kts 290°
2026-05-05 18:45 49.18072 11.62811 35810 ft 441 kts 290°
2026-05-05 18:45 49.20663 11.54300 35829 ft 442 kts 290°
2026-05-05 18:46 49.23254 11.45760 35822 ft 443 kts 290°
2026-05-05 18:46 49.25906 11.37235 35824 ft 445 kts 292°
2026-05-05 18:47 49.28856 11.28881 35824 ft 447 kts 295°
2026-05-05 18:47 49.31905 11.20593 35828 ft 447 kts 295°
2026-05-05 18:48 49.34900 11.12247 35842 ft 447 kts 294°
2026-05-05 18:48 49.37827 11.03895 35833 ft 447 kts 294°
2026-05-05 18:49 49.40764 10.95470 35828 ft 448 kts 294°
2026-05-05 18:49 49.43710 10.87022 35830 ft 449 kts 294°
2026-05-05 18:50 49.46657 10.78572 35830 ft 449 kts 294°
2026-05-05 18:50 49.49602 10.70094 35826 ft 450 kts 294°
2026-05-05 18:51 49.52544 10.61577 35817 ft 451 kts 294°
2026-05-05 18:51 49.55487 10.53049 35815 ft 451 kts 294°
2026-05-05 18:52 49.58426 10.44502 35819 ft 452 kts 294°
2026-05-05 18:52 49.61362 10.35930 35847 ft 452 kts 294°
2026-05-05 18:53 49.64292 10.27332 35832 ft 453 kts 294°
2026-05-05 18:53 49.67224 10.18698 35829 ft 454 kts 294°
2026-05-05 18:54 49.70161 10.10054 35828 ft 455 kts 294°
2026-05-05 18:54 49.73095 10.01392 35829 ft 455 kts 294°
2026-05-05 18:55 49.76018 9.92711 35842 ft 456 kts 294°
2026-05-05 18:55 49.78941 9.83996 35828 ft 457 kts 294°
2026-05-05 18:56 49.81842 9.75310 35829 ft 457 kts 294°
2026-05-05 18:56 49.84763 9.66546 35822 ft 458 kts 294°
2026-05-05 18:57 49.87673 9.57777 35829 ft 458 kts 294°
2026-05-05 18:57 49.90583 9.48985 35844 ft 458 kts 294°
2026-05-05 18:58 49.93486 9.40196 35838 ft 458 kts 294°
2026-05-05 18:58 49.96378 9.31382 35835 ft 458 kts 294°
2026-05-05 18:59 49.99261 9.22560 35829 ft 458 kts 294°
2026-05-05 18:59 50.02153 9.13721 35853 ft 459 kts 294°
2026-05-05 19:00 50.05042 9.04874 35839 ft 459 kts 294°
2026-05-05 19:00 50.07917 8.96008 35828 ft 459 kts 294°
2026-05-05 19:01 50.10784 8.87115 35826 ft 460 kts 294°
2026-05-05 19:01 50.12218 8.82656 35694 ft 461 kts 294°
2026-05-05 19:01 50.13650 8.78195 35439 ft 461 kts 294°
2026-05-05 19:02 50.14621 8.75171 35272 ft 461 kts 294°
2026-05-05 19:02 50.16055 8.70691 35093 ft 463 kts 294°
2026-05-05 19:02 50.17496 8.66191 34842 ft 464 kts 294°
2026-05-05 19:02 50.18917 8.61743 34604 ft 465 kts 294°
2026-05-05 19:03 50.20380 8.57156 34362 ft 467 kts 294°
2026-05-05 19:03 50.21809 8.52662 34128 ft 468 kts 294°
2026-05-05 19:03 50.23274 8.48042 33890 ft 470 kts 294°
2026-05-05 19:03 50.24725 8.43459 33654 ft 471 kts 294°
2026-05-05 19:04 50.26158 8.38922 33371 ft 472 kts 294°
2026-05-05 19:04 50.27612 8.34318 33043 ft 471 kts 294°
2026-05-05 19:04 50.29059 8.29736 32725 ft 469 kts 294°
2026-05-05 19:04 50.30496 8.25173 32403 ft 466 kts 294°
2026-05-05 19:05 50.31925 8.20630 32089 ft 464 kts 294°
2026-05-05 19:05 50.33334 8.16157 31773 ft 462 kts 294°
2026-05-05 19:05 50.34747 8.11658 31454 ft 459 kts 294°
2026-05-05 19:05 50.36144 8.07188 31152 ft 457 kts 294°
2026-05-05 19:06 50.37535 8.02725 30844 ft 454 kts 294°
2026-05-05 19:06 50.38917 7.98282 30536 ft 453 kts 294°
2026-05-05 19:06 50.40292 7.93859 30237 ft 451 kts 294°
2026-05-05 19:06 50.41657 7.89458 29951 ft 448 kts 294°
2026-05-05 19:07 50.43016 7.85065 29625 ft 445 kts 294°
2026-05-05 19:07 50.44356 7.80723 29290 ft 441 kts 294°
2026-05-05 19:07 50.45689 7.76398 28946 ft 439 kts 294°
2026-05-05 19:07 50.47013 7.72097 28612 ft 436 kts 294°
2026-05-05 19:08 50.48328 7.67827 28277 ft 433 kts 294°
2026-05-05 19:08 50.49634 7.63577 27956 ft 431 kts 294°
2026-05-05 19:08 50.50930 7.59350 27633 ft 429 kts 294°
2026-05-05 19:08 50.52216 7.55139 27309 ft 426 kts 294°
2026-05-05 19:09 50.53494 7.50943 26999 ft 424 kts 294°
2026-05-05 19:09 50.54691 7.46737 26796 ft 420 kts 288°
2026-05-05 19:09 50.55495 7.42338 26824 ft 418 kts 279°
2026-05-05 19:09 50.55880 7.37833 26819 ft 416 kts 271°
2026-05-05 19:10 50.55937 7.33287 26823 ft 415 kts 268°
2026-05-05 19:10 50.55969 7.28750 26821 ft 415 kts 269°
2026-05-05 19:10 50.56002 7.24217 26818 ft 415 kts 269°
2026-05-05 19:10 50.56034 7.19685 26818 ft 415 kts 269°
2026-05-05 19:11 50.56048 7.15145 26820 ft 415 kts 267°
2026-05-05 19:11 50.55997 7.10613 26818 ft 414 kts 266°
2026-05-05 19:11 50.55896 7.06080 26816 ft 414 kts 265°
2026-05-05 19:11 50.55770 7.01561 26825 ft 414 kts 265°
2026-05-05 19:12 50.55640 6.97100 26834 ft 414 kts 265°
2026-05-05 19:12 50.55514 6.92574 26817 ft 414 kts 265°
2026-05-05 19:12 50.55395 6.87986 26828 ft 415 kts 266°
2026-05-05 19:12 50.55285 6.83460 26819 ft 415 kts 266°
2026-05-05 19:13 50.55179 6.78982 26817 ft 415 kts 266°
2026-05-05 19:13 50.55072 6.74449 26823 ft 415 kts 266°
2026-05-05 19:13 50.55044 6.69917 26818 ft 416 kts 271°
2026-05-05 19:13 50.55395 6.65402 26829 ft 417 kts 279°
2026-05-05 19:14 50.55950 6.60912 26816 ft 418 kts 279°
2026-05-05 19:14 50.56497 6.56429 26821 ft 418 kts 279°
2026-05-05 19:14 50.57040 6.51939 26817 ft 418 kts 279°
2026-05-05 19:14 50.57577 6.47452 26823 ft 417 kts 279°
2026-05-05 19:15 50.58111 6.42979 26824 ft 417 kts 279°
2026-05-05 19:15 50.58647 6.38495 26827 ft 417 kts 279°
2026-05-05 19:15 50.59181 6.34009 26837 ft 417 kts 279°
2026-05-05 19:15 50.59713 6.29526 26833 ft 417 kts 279°
2026-05-05 19:16 50.60249 6.24992 26831 ft 417 kts 279°
2026-05-05 19:16 50.60773 6.20545 26833 ft 417 kts 279°
2026-05-05 19:16 50.61301 6.16065 26832 ft 417 kts 279°
2026-05-05 19:16 50.61830 6.11573 26842 ft 417 kts 279°
2026-05-05 19:17 50.62356 6.07082 26842 ft 417 kts 279°
2026-05-05 19:17 50.62877 6.02603 26846 ft 417 kts 279°
2026-05-05 19:17 50.63397 5.98110 26847 ft 417 kts 278°
2026-05-05 19:17 50.63913 5.93624 26855 ft 417 kts 278°
2026-05-05 19:18 50.64430 5.89127 26856 ft 417 kts 279°
2026-05-05 19:18 50.65164 5.84722 26855 ft 418 kts 288°
2026-05-05 19:18 50.66319 5.80507 26858 ft 419 kts 296°
2026-05-05 19:18 50.67646 5.76415 26864 ft 419 kts 296°
2026-05-05 19:19 50.68971 5.72318 26865 ft 419 kts 296°
2026-05-05 19:19 50.70293 5.68228 26865 ft 419 kts 296°
2026-05-05 19:19 50.71615 5.64123 26687 ft 419 kts 296°
2026-05-05 19:19 50.72928 5.60030 26440 ft 416 kts 296°
2026-05-05 19:20 50.74219 5.55985 26045 ft 411 kts 295°
2026-05-05 19:20 50.75493 5.51975 25580 ft 407 kts 295°
2026-05-05 19:20 50.76759 5.47988 25108 ft 404 kts 295°
2026-05-05 19:20 50.78014 5.44034 24654 ft 401 kts 295°
2026-05-05 19:21 50.79259 5.40108 24205 ft 399 kts 295°
2026-05-05 19:21 50.80497 5.36200 23755 ft 396 kts 295°
2026-05-05 19:21 50.81724 5.32323 23269 ft 394 kts 295°
2026-05-05 19:21 50.82945 5.28463 22798 ft 390 kts 295°
2026-05-05 19:22 50.84151 5.24642 22369 ft 386 kts 295°
2026-05-05 19:22 50.85341 5.20856 21918 ft 383 kts 295°
2026-05-05 19:22 50.86515 5.17097 21470 ft 379 kts 293°
2026-05-05 19:22 50.87418 5.13209 21020 ft 374 kts 283°
2026-05-05 19:23 50.87863 5.09187 20567 ft 369 kts 273°
2026-05-05 19:23 50.88039 5.05149 20126 ft 366 kts 272°
2026-05-05 19:23 50.88215 5.01132 19673 ft 364 kts 272°
2026-05-05 19:23 50.88390 4.97145 19224 ft 362 kts 272°
2026-05-05 19:24 50.88566 4.93185 18778 ft 360 kts 272°
2026-05-05 19:24 50.88742 4.89246 18329 ft 358 kts 272°
2026-05-05 19:24 50.88915 4.85317 17852 ft 357 kts 272°
2026-05-05 19:24 50.89085 4.81413 17401 ft 354 kts 272°
2026-05-05 19:25 50.89252 4.77541 16964 ft 351 kts 272°
2026-05-05 19:25 50.89415 4.73706 16537 ft 348 kts 272°
2026-05-05 19:25 50.89577 4.69895 16120 ft 346 kts 273°
2026-05-05 19:25 50.89734 4.66100 15696 ft 345 kts 274°
2026-05-05 19:26 50.89886 4.62313 15274 ft 344 kts 274°
2026-05-05 19:26 50.90036 4.58539 14858 ft 343 kts 274°
2026-05-05 19:26 50.90187 4.54773 14432 ft 342 kts 275°
2026-05-05 19:26 50.90318 4.51000 13979 ft 343 kts 273°
2026-05-05 19:27 50.90395 4.47218 13496 ft 344 kts 272°
2026-05-05 19:27 50.90441 4.43431 12995 ft 344 kts 272°
2026-05-05 19:27 50.90476 4.39650 12516 ft 342 kts 272°
2026-05-05 19:27 50.90509 4.35891 12044 ft 341 kts 271°
2026-05-05 19:28 50.90542 4.32134 11549 ft 340 kts 272°
2026-05-05 19:28 50.90582 4.28391 11064 ft 340 kts 272°
2026-05-05 19:28 50.90597 4.24661 10574 ft 338 kts 266°
2026-05-05 19:28 50.89995 4.21138 10125 ft 336 kts 241°
2026-05-05 19:29 50.88547 4.18360 9997 ft 322 kts 218°
2026-05-05 19:29 50.86617 4.16756 9874 ft 309 kts 195°
2026-05-05 19:29 50.84535 4.16438 9727 ft 297 kts 173°
2026-05-05 19:29 50.82528 4.17104 9333 ft 294 kts 165°
2026-05-05 19:30 50.80546 4.17889 8928 ft 293 kts 165°
2026-05-05 19:30 50.78587 4.18666 8277 ft 289 kts 164°
2026-05-05 19:30 50.76639 4.19435 7579 ft 288 kts 164°
2026-05-05 19:30 50.74702 4.20198 6878 ft 286 kts 164°
2026-05-05 19:31 50.72789 4.20948 6419 ft 276 kts 164°
2026-05-05 19:31 50.71009 4.21710 6212 ft 255 kts 154°
2026-05-05 19:31 50.69667 4.23331 5919 ft 238 kts 122°
2026-05-05 19:31 50.69056 4.25673 5714 ft 232 kts 94°
2026-05-05 19:32 50.69226 4.28145 5360 ft 226 kts 73°
2026-05-05 19:32 50.69614 4.30536 5033 ft 224 kts 74°
2026-05-05 19:32 50.69991 4.32905 4718 ft 221 kts 74°
2026-05-05 19:32 50.70359 4.35242 4411 ft 218 kts 74°
2026-05-05 19:33 50.70717 4.37521 4183 ft 211 kts 73°
2026-05-05 19:33 50.71141 4.39709 3858 ft 204 kts 62°
2026-05-05 19:33 50.71926 4.41450 3645 ft 188 kts 43°
2026-05-05 19:33 50.72937 4.42597 3464 ft 172 kts 27°
2026-05-05 19:34 50.74019 4.43178 3237 ft 157 kts 17°
2026-05-05 19:34 50.75025 4.43583 3036 ft 143 kts 18°
2026-05-05 19:34 50.75966 4.43966 2859 ft 137 kts 18°
2026-05-05 19:35 50.77786 4.44706 2487 ft 134 kts 18°
2026-05-05 19:35 50.78686 4.45071 2303 ft 134 kts 18°
2026-05-05 19:35 50.79590 4.45438 2112 ft 135 kts 17°
2026-05-05 19:35 50.80495 4.45806 1929 ft 134 kts 16°
2026-05-05 19:36 50.81396 4.46172 1754 ft 132 kts 15°
2026-05-05 19:36 50.82289 4.46535 1568 ft 133 kts 15°
2026-05-05 19:36 50.83180 4.46897 1383 ft 132 kts 17°
2026-05-05 19:36 50.84070 4.47259 1196 ft 132 kts 15°
2026-05-05 19:37 50.84955 4.47615 1005 ft 132 kts 14°
2026-05-05 19:37 50.85855 4.47980 838 ft 133 kts 15°
2026-05-05 19:37 50.86750 4.48346 607 ft 133 kts 14°
2026-05-05 19:37 50.87645 4.48711 440 ft 132 kts 14°
2026-05-05 19:38 50.88535 4.49068 272 ft 133 kts 14°
2026-05-05 19:38 50.89403 4.49428 171 ft 120 kts 14°
2026-05-05 19:38 50.90064 4.49682 132 ft 71 kts 12°
2026-05-05 19:38 50.90331 4.49662 122 ft 25 kts 343°
2026-05-05 19:39 50.90454 4.49549 121 ft 0 kts 328°
2026-05-05 19:39 50.90470 4.49532 124 ft 4 kts 327°
2026-05-05 19:40 50.90474 4.49509 121 ft 1 kts 263°
2026-05-05 19:40 50.90457 4.49466 123 ft 11 kts 232°
2026-05-05 19:40 50.90419 4.49322 122 ft 16 kts 290°
2026-05-05 19:40 50.90515 4.49229 124 ft 17 kts 336°
2026-05-05 19:41 50.90627 4.49147 118 ft 20 kts 332°
2026-05-05 19:41 50.90629 4.49031 117 ft 10 kts 240°
2026-05-05 19:41 50.90601 4.48922 120 ft 10 kts 249°
2026-05-05 19:41 50.90557 4.48772 119 ft 20 kts 244°
2026-05-05 19:42 50.90501 4.48579 117 ft 13 kts 246°
2026-05-05 19:42 50.90455 4.48560 121 ft 7 kts 154°
2026-05-05 19:42 50.90420 4.48585 118 ft 3 kts 154°
2026-05-05 19:42 50.90412 4.48591 119 ft 0 kts 155°
2026-05-05 19:43 50.90409 4.48594 119 ft 0 kts 155°
2026-05-05 19:45 0.00000 0.00000 1063 ft 0 kts 355°